www.pogodaiklimat.ru

Погода и климат >> Архив погоды >> Чехия >> Часлав


ПОГОДА в Чаславе

  • Прогноз погоды в Чаславе
  • Монитор погоды в Чаславе

АРХИВ ПОГОДЫ в Чаславе

Время (UTC), дата Ветер
(напр.,м/с)
 
Видим.   Явления Облачность Т
(С)
Тd
(С)
f
(%)
Тe
(С)
Тes
(С)
Комфортность P
(гПа)
Po
(гПа)
Тmin
(С)
Tmax
(С)
R
(мм)
R24
(мм)
S
(см)
19 10.06 ЮВ 3 20 км 6/0
[Ci sp]
+25.9 +17.6 60 +30 +30 душно 1010.2 983.2
20 10.06 В 3 20 км 6/0
[Ac lent Ci sp]
+24.2 +17.0 64 +28 +28 душно 1010.1 982.9
21 10.06 В 4 20 км зарница 6/0
[Ac lent Ci sp]
+23.3 +17.3 69 +29 +29 душно 1009.3 982.1
22 10.06 ЮВ 5 20 км зарница 8/0
[Ac lent Ci sp]
+24.3 +17.3 65 +28 +28 душно 1009.7 982.6
23 10.06 ЮВ 2 20 км 8/0
[Ac As Ci sp]
+24.1 +17.3 66 +28 +28 душно 1010.3 983.1
00 11.06 ЮВ 4 20 км 6/0
[Ci sp]
+23.3 +17.3 69 +29 +29 душно 1009.7 982.5
01 11.06 В 2 20 км 4/0
[Ci sp]
+21.5 +17.1 76 +25 +25 комфорт 1009.4 982.0
02 11.06 В 2 15 км 1/0
[Ci sp]
+22.8 +16.8 69 +28 +28 душно 1009.0 981.7
03 11.06 ЮВ 4 15 км 1/0
[Ci sp]
+22.4 +16.9 71 +27 +27 душно 1009.1 981.8
04 11.06 ЮВ 5 20 км 1/0
[Ci fib]
+22.5 +17.4 73 +27 +28 душно 1008.9 981.6
05 11.06 ЮВ 5 20 км 1/0
[Ci fib]
+23.3 +17.7 71 +29 +30 душно 1008.7 981.5
06 11.06 ЮВ 7
{11}
30 км 1/0
[Ci fib]
+24.7 +18.1 67 +29 +30 душно 1008.6 981.5 +21.2
07 11.06 Ю 8
{13}
30 км 1/0
[Ci fib]
+26.1 +18.4 63 +31 +32 очень
душно
1009.2 982.2
08 11.06 Ю 8
{13}
30 км ясно +27.4 +18.7 59 +32 +35 очень
душно
1009.4 982.6
09 11.06 ЮВ 6
{13}
30 км 1/1 1170 м
[Cu hum]
+28.9 +19.4 57 +35 +40 очень
душно
1009.7 983.0
10 11.06 Ю 7
{12}
30 км 3/3 1500 м
[Cu hum]
+29.6 +18.1 50 +34 +37 очень
душно
1009.5 982.8
11 11.06 Ю 8
{12}
30 км 3/3 1500 м
[Cu hum]
+30.4 +18.3 48 +35 +37 очень
душно
1009.1 982.5
12 11.06 ЮВ 8
{13}
30 км 4/1 1500 м
[Cu hum Ac trans]
+30.9 +17.3 44 +35 +37 очень
душно
1008.9 982.4
13 11.06 ЮВ 6
{12}
30 км 4/0
[Ac trans]
+31.1 +18.4 47 +36 +40 очень
душно
1008.5 982.0
14 11.06 ЮВ 5 30 км 4/0
[Ac trans]
+31.0 +18.9 49 +36 +41 очень
душно
1008.2 981.7
15 11.06 ЮВ 7
{12}
30 км 4/0
[Ci]
+30.6 +18.5 48 +35 +37 очень
душно
1007.9 981.4
16 11.06 ЮВ 8
{12}
30 км 4/0
[Ci fib]
+30.2 +17.7 47 +34 +35 очень
душно
1007.9 981.3
17 11.06 ЮВ 4 30 км 6/0
[Ci]
+29.0 +18.0 51 +33 +35 очень
душно
1008.0 981.3
18 11.06 ЮВ 6
{12}
30 км 6/0
[Ci fib]
+27.9 +17.9 55 +32 +33 душно 1008.3 981.5 +31.5
19 11.06 ЮВ 5 30 км 8/0
[Ac trans Ci fib]
+26.6 +17.7 58 +31 +31 душно 1008.5 981.6
20 11.06 ЮВ 2 20 км 8/0
[Ac trans Ci fib]
+25.5 +17.9 63 +30 +30 душно 1009.1 982.1
21 11.06 Ю 6 20 км 8/0
[Ac trans Ci fib]
+26.1 +17.5 59 +30 +30 душно 1008.9 981.9
22 11.06 ЮВ 8
{11}
20 км 4/0
[Ac trans Ci fib]
+25.0 +16.9 61 +29 +29 душно 1008.7 981.6
23 11.06 ЮВ 9
{12}
20 км ясно +24.4 +16.8 63 +28 +28 душно 1008.0 980.9
00 12.06 ЮВ 5
{12}
20 км ясно +23.3 +16.9 67 +28 +28 душно 1008.5 981.3
01 12.06 В 2 20 км ясно +21.6 +16.7 74 +26 +26 душно 1008.8 981.4
02 12.06 Ю 4 20 км 6/0
[Ci fib]
+22.1 +16.8 72 +26 +26 душно 1009.2 981.9
03 12.06 В 3 20 км 1/0
[Ci fib]
+21.4 +16.6 74 +25 +25 комфорт 1008.9 981.5
04 12.06 ЮВ 2 20 км ясно +21.0 +16.8 77 +25 +26 комфорт 1009.1 981.7
05 12.06 ЮВ 4 30 км ясно +22.7 +17.2 71 +28 +29 душно 1008.7 981.4
06 12.06 ЮВ 6 20 км 1/0
[Ci fib]
+24.4 +16.3 61 +28 +30 душно 1008.3 981.2 +19.4
07 12.06 ЮВ 9
{12}
20 км 4/0
[Ci]
+25.4 +16.0 56 +29 +29 душно 1008.4 981.4
08 12.06 ЮВ 7
{11}
40 км 4/0
[Ci fib]
+27.0 +16.3 52 +30 +33 душно 1008.2 981.3
09 12.06 ЮВ 8
{12}
40 км 1/0
[Ci fib]
+28.1 +16.1 48 +31 +34 душно 1008.0 981.2
10 12.06 ЮВ 9
{15}
20 км 4/0
[Ci]
+28.9 +16.2 46 +32 +34 душно 1007.7 981.0
11 12.06 ЮВ 9
{15}
20 км 5/0
[Ci]
+30.6 +16.2 42 +34 +35 очень
душно
1007.2 980.7
12 12.06 ЮВ 11
{15}
20 км 4/0
[Ci fib]
+30.9 +16.1 41 +34 +34 душно 1007.0 980.5
13 12.06 ЮВ 10
{14}
20 км 4/1 1500 м
[Cu hum Ci fib]
+31.0 +16.3 41 +34 +35 душно 1006.6 980.1
14 12.06 ЮВ 10
{14}
20 км 4/1 1500 м
[Sc diur, vesp Ci fib]
+31.3 +16.6 41 +34 +35 душно 1006.2 979.8
15 12.06 ЮВ 10
{16}
20 км 5/1 1500 м
[Sc Ci]
+30.8 +17.0 44 +35 +35 очень
душно
1006.0 979.5
16 12.06 ЮВ 8
{14}
20 км 6/1 1500 м
[Cu hum Ci]
+29.7 +17.0 46 +33 +34 душно 1005.9 979.3
17 12.06 ЮВ 7
{13}
20 км 8/1 1500 м
[Cu med, cong Ci]
+29.3 +16.8 47 +33 +33 душно 1005.6 979.0
18 12.06 ЮВ 8
{16}
15 км 6/1 1500 м
[Cb calv Ci fib]
+27.9 +16.6 50 +31 +32 душно 1006.1 979.4 +31.7
19 12.06 СЗ 10
{13}
15 км гроза без осадков 8/8 700 м
[Cb cap Ci fib]
+22.9 +18.2 75 +29 +29 очень
душно
1008.7 981.5
20 12.06 СЗ 7
{11}
10 км гроза, ливневой дождь 9/9 600 м
[Cb cap]
+20.1 +17.3 84 +23 +23 комфорт 1011.2 983.6
21 12.06 ЮЗ 3
{13}
10 км гроза без осадков {ливн. осадки} 4/4 750 м
[Cb cap Ci ing]
+18.8 +17.5 92 +20 +20 1011.5 983.8
22 12.06 З 2 10 км в посл. час гроза 6/3 300 м
[Cb cap Ci ing]
+17.9 +17.1 95 +18 +18 1012.0 984.2
23 12.06 Ю 2 10 км 5/0
[Ci fib]
+18.0 +16.3 90 +19 +19 1011.6 983.8
00 13.06 З 3
{13}
10 км {гроза, ливн. осадки} 5/0
[Ci fib]
+16.6 +15.6 94 +16 +16 1012.0 984.1 0.1
01 13.06 З 4 10 км 6/3 900 м
[Sc Ci fib]
+16.8 +15.0 89 +16 +16 1012.1 984.2
02 13.06 З 4 10 км 9/9 900 м
[Sc]
+17.0 +15.6 91 +17 +17 1012.3 984.4
03 13.06 З 3 10 км 4/4 300 м
[Sc]
+16.3 +15.0 92 +16 +16 1012.6 984.6
04 13.06 З 3 10 км 8/8 300 м
[Sc]
+16.0 +13.8 87 +16 +16 1013.7 985.6
05 13.06 З 5 20 км 8/8 420 м
[Cu Sc]
+16.0 +12.5 80 +15 +15 1014.2 986.1
06 13.06 З 5 20 км 8/8 480 м
[Cu Sc]
+16.8 +13.0 78 +16 +17 1014.4 986.4 +15.6 0.1
07 13.06 СЗ 5 20 км 5/5 1200 м
[Sc]
+18.1 +13.3 74 +18 +20 1014.7 986.8
08 13.06 СЗ 5 20 км 3/3 630 м
[Cu hum]
+18.9 +13.8 72 +20 +24 1014.8 987.0
09 13.06 С 3 20 км 3/3 660 м
[Cu hum]
+20.4 +14.7 70 +23 +32 комфорт 1014.7 987.0
10 13.06 З 2 20 км 3/3 720 м
[Cu hum]
+21.6 +16.4 72 +25 +37 комфорт 1014.4 986.9
11 13.06 С 2 20 км 4/4 800 м
[Cu hum]
+22.8 +15.9 65 +27 +38 душно 1013.9 986.5
12 13.06 СЗ 1 20 км 6/6 870 м
[Cu hum]
+23.9 +17.0 65 +28 +36 душно 1013.6 986.3
13 13.06 СЗ 3 20 км 6/6 930 м
[Cu hum]
+23.8 +17.2 67 +28 +33 душно 1013.7 986.4
14 13.06 З 2 20 км 3/3 1350 м
[Cu hum]
+25.1 +17.4 62 +29 +37 душно 1013.1 985.9
15 13.06 СЗ 3 20 км 3/3 1440 м
[Cu hum]
+25.3 +17.3 61 +29 +34 душно 1012.6 985.5
16 13.06 СЗ 4 20 км 1/1 1500 м
[Cu hum]
+25.2 +17.6 63 +29 +32 душно 1012.5 985.4
17 13.06 СЗ 3 20 км 1/0
[Ac trans]
+24.9 +17.0 62 +29 +30 душно 1012.6 985.4
18 13.06 С 3 20 км 1/0
[Ac trans]
+23.7 +17.0 66 +27 +28 жарко 1013.1 985.8 +25.6
19 13.06 СВ 1 20 км 3/0
[Ac cast]
+22.3 +17.2 73 +27 +27 душно 1013.8 986.4
20 13.06 СЗ 2 20 км 1/0
[Ac trans]
+21.0 +17.1 78 +26 +26 душно 1014.3 986.7
21 13.06 СЗ 2 20 км 1/0
[Ac cast]
+19.8 +16.9 83 +23 +23 комфорт 1015.1 987.4
22 13.06 СЗ 2 20 км зарница 4/0
[Ac cast]
+19.0 +16.9 88 +21 +21 комфорт 1015.9 988.1
23 13.06 З 1 20 км зарница 5/0
[Ac cast]
+18.4 +16.4 88 +20 +20 1016.9 989.0
00 14.06 З 2 20 км 5/0
[Ac As]
+18.2 +16.5 90 +19 +19 1017.4 989.5
01 14.06 ЮВ 1 10 км 5/0
[Ac As]
+17.4 +16.3 93 +18 +18 1017.1 989.1
02 14.06 З 2 10 км 6/0
[Ac As]
+17.1 +16.3 95 +17 +17 1017.2 989.2
03 14.06 СЗ 3 8000 м дымка 6/0
[Ac As]
+16.9 +16.3 96 +17 +17 1018.1 990.0
04 14.06 СЗ 2 10 км 1/1 150 м
[Cu hum]
+16.5 +15.8 96 +17 +17 1018.8 990.7
05 14.06 СЗ 2 10 км 1/0
[Ac trans]
+18.1 +16.6 91 +19 +21 1019.2 991.2
06 14.06 СЗ 1 20 км ясно +19.6 +16.5 82 +23 +28 комфорт 1019.3 991.5 +16.3
07 14.06 З 1 20 км ясно +21.8 +17.2 75 +26 +36 душно 1019.2 991.6
08 14.06 З 2 20 км ясно +23.0 +18.2 74 +29 +40 очень
душно
1019.2 991.7
09 14.06 С 2 20 км 1/0
[Ci]
+25.2 +16.3 58 +29 +43 душно 1018.9 991.6
10 14.06 В 2 30 км 1/0
[Ci fib]
+26.5 +14.3 47 +29 +46 жарко 1018.6 991.4
11 14.06 В 4 30 км 3/0
[Ci]
+28.0 +13.4 41 +30 +41 жарко 1018.0 990.9
12 14.06 В 4 30 км 5/0
[Ci]
+28.7 +13.0 38 +30 +40 жарко 1017.2 990.2
13 14.06 СВ 3 30 км 5/0
[Ci]
+29.6 +16.9 46 +33 +44 душно 1016.7 989.8
14 14.06 В 4 30 км 5/3 1500 м
[Cu hum Ci fib]
+29.9 +18.4 50 +35 +40 очень
душно
1015.9 989.1
15 14.06 В 4 30 км 5/5 1500 м
[Cu hum]
+30.2 +19.9 54 +36 +39 очень
душно
1015.2 988.5
16 14.06 В 4 30 км 5/5 1500 м
[Cu hum]
+30.2 +20.0 54 +36 +38 очень
душно
1014.9 988.2
17 14.06 В 5 30 км 5/0
[Ci]
+29.3 +19.8 57 +36 +37 очень
душно
1014.7 987.9
18 14.06 В 3 30 км 6/0
[Ci]
+27.8 +19.8 62 +34 +34 очень
душно
1014.7 987.8 +30.3
19 14.06 В 2 30 км 6/0
[Ci fib]
+25.8 +19.8 69 +31 +31 очень
душно
1014.6 987.5
20 14.06 В 4 20 км 3/0
[Ci fib]
+24.7 +18.3 68 +29 +29 душно 1014.4 987.2
21 14.06 ЮВ 4 20 км 1/0
[Ci fib]
+24.5 +18.1 68 +29 +29 душно 1014.5 987.3
22 14.06 ЮВ 2 20 км ясно +22.8 +18.3 76 +28 +28 душно 1014.4 987.0
23 14.06 В 2 20 км 5/0
[Ci]
+22.1 +18.6 81 +27 +27 душно 1013.6 986.2
00 15.06 СВ 3 10 км 5/0
[Ci fib]
+21.4 +18.6 84 +26 +26 душно 1012.9 985.4
01 15.06 СВ 1 15 км 4/0
[Ci fib]
+21.4 +18.5 84 +26 +26 душно 1012.6 985.1
02 15.06 В 2 10 км ясно +20.9 +17.9 83 +26 +26 душно 1011.9 984.4
03 15.06 В 2 15 км 8/0
[Ci]
+21.2 +17.5 79 +25 +25 комфорт 1011.3 983.8
04 15.06 ЮВ 2 20 км 5/0
[Ci fib]
+23.8 +17.5 68 +28 +28 душно 1011.0 983.8
05 15.06 ЮВ 4 30 км 5/0
[Ac trans Ci fib]
+23.8 +17.3 67 +28 +29 душно 1010.8 983.6
06 15.06 ЮВ 6 20 км 5/0
[Ac trans Ci fib]
+25.3 +17.5 62 +29 +31 душно 1010.4 983.3 +20.3
07 15.06 Ю 8
{12}
20 км 8/0
[Ac As]
+26.1 +17.4 59 +30 +31 душно 1010.6 983.6
08 15.06 ЮВ 5 20 км 8/0
[Ac trans Cs]
+27.8 +18.7 58 +33 +37 очень
душно
1010.5 983.7
09 15.06 Ю 4
{12}
20 км 9/0
[Ac trans Cs]
+28.4 +18.3 54 +33 +40 очень
душно
1010.5 983.7
10 15.06 ЮВ 5 20 км 5/0
[Ac trans]
+30.2 +18.6 50 +35 +42 очень
душно
1010.2 983.6
11 15.06 ЮВ 5 20 км 4/0
[Ac trans]
+30.2 +19.2 52 +36 +43 очень
душно
1010.2 983.6
12 15.06 Ю 3
{12}
20 км 9/0
[Ac trans]
+30.8 +18.1 47 +35 +42 очень
душно
1010.1 983.5
13 15.06 ЮЗ 3 20 км в посл. час ливневой дождь 9/1 1200 м
[Cu med, cong Ac und Ci fib]
+31.2 +15.3 38 +34 +40 душно 1010.2 983.6
14 15.06 З 2 20 км 5/3 1500 м
[Cu med, cong Ac trans]
+31.7 +15.9 39 +35 +41 очень
душно
1009.9 983.4
15 15.06 СЗ 1 20 км 5/5 1200 м
[Cb cap]
+32.5 +15.3 35 +35 +39 душно 1008.6 982.2
16 15.06 ЮВ 3 10 км гроза, ливневой дождь 9/9 1200 м
[Cb cap]
+30.3 +18.7 50 +35 +36 очень
душно
1008.8 982.2
17 15.06 С 5
{18}
5000 м ливневой дождь, в посл. час гроза 9/9 900 м
[Cb cap]
+18.7 +16.5 87 +19 +20 1011.8 984.1
18 15.06 ЮЗ 3
{18}
20 км в посл. час гроза {ливн. осадки} 10/5 1200 м
[Cb cap Ac und]
+19.1 +17.4 90 +21 +21 комфорт 1011.5 983.8 +32.9 6
19 15.06 З 2 20 км 9/5 1500 м
[Cu med, cong Ac und]
+19.5 +17.4 88 +22 +22 комфорт 1012.2 984.6
20 15.06 СВ 3 20 км слаб. ливневой дождь 10/5 1200 м
[Cu med, cong Ac und]
+18.9 +17.4 91 +20 +20 1013.1 985.4
21 15.06 ЮЗ 3 20 км слаб. ливневой дождь 10/5 1200 м
[Cb calv Ac und]
+19.6 +17.4 87 +22 +22 комфорт 1014.9 987.2
22 15.06 СЗ 5 20 км слаб. дождь 10/6 1200 м
[Sc Ac und]
+19.5 +17.6 89 +22 +22 комфорт 1014.8 987.1
23 15.06 С 3 20 км в посл. час дождь 8/0
[Ac und]
+18.7 +17.3 92 +20 +20 1015.0 987.2
00 16.06 В 2 15 км слаб. дождь 10/5 1500 м
[Sc Ac und]
+18.6 +17.4 93 +20 +20 1015.7 987.9 1
01 16.06 Ю 1 20 км в посл. час дождь 6/0
[Ac trans]
+18.1 +17.5 96 +19 +19 1014.5 986.7
02 16.06 З 2 10 км 6/0
[Ac trans Cs]
+17.1 +16.6 97 +17 +17 1014.8 986.8
03 16.06 З 2 10 км {дождь} 6/0
[Ac trans Ci sp]
+15.9 +15.5 97 +16 +16 1015.4 987.3
04 16.06 З 2 20 км 5/1 1200 м
[Cu med, cong Ac trans]
+16.4 +15.9 97 +16 +17 1015.8 987.7
05 16.06 З 4 20 км 8/5 1200 м
[Sc Ac trans]
+17.9 +16.7 93 +18 +18 1016.6 988.7
06 16.06 З 4 15 км слаб. ливневой дождь 10/10 900 м
[Cu Sc]
+17.9 +16.4 91 +18 +18 1017.4 989.4 +15.7 2
07 16.06 СЗ 6 20 км в посл. час ливневой дождь 8/8 960 м
[Cu Sc]
+18.0 +16.6 92 +17 +18 1017.6 989.7
08 16.06 СЗ 9
{11}
20 км 9/3 330 м
[Cu hum Ac und]
+17.6 +15.5 87 +16 +17 1018.5 990.5
09 16.06 СЗ 7
{11}
20 км {ливн. осадки} 10/10 540 м
[Sc]
+17.5 +14.0 80 +17 +17 1019.4 991.3
10 16.06 СЗ 6 30 км 10/10 800 м
[Sc]
+17.7 +14.2 80 +17 +17 1019.6 991.5
11 16.06 СЗ 5 30 км 10/10 1020 м
[Sc]
+19.2 +14.1 72 +20 +20 1019.6 991.7
12 16.06 СЗ 6
{11}
30 км {ливн. осадки} 9/9 1140 м
[Sc]
+20.2 +14.2 68 +22 +23 комфорт 1019.3 991.5 0.7
13 16.06 СЗ 5 30 км 9/9 1230 м
[Sc]
+17.5 +12.7 73 +17 +18 1020.4 992.3
14 16.06 ЮЗ 3 30 км 9/9 1350 м
[Cu Sc]
+18.1 +14.3 78 +18 +19 1020.1 992.1
15 16.06 СВ 4 30 км 9/9 1380 м
[Cu Sc]
+20.2 +12.1 60 +22 +23 комфорт 1019.6 991.8
16 16.06 СЗ 3 30 км 9/9 1500 м
[Sc]
+21.0 +13.5 62 +24 +24 комфорт 1019.0 991.3
17 16.06 СЗ 2 30 км 5/5 1500 м
[Sc]
+20.8 +12.8 60 +24 +25 комфорт 1019.7 991.9
18 16.06 СВ 1 30 км 5/0 2000 м
[Ac trans Ci]
+20.9 +13.2 61 +25 +25 комфорт 1020.1 992.3 +21.5 0.7
19 16.06 З 2 30 км 6/0
[Ac trans Ci]
+18.1 +15.1 83 +19 +19 1020.4 992.4
20 16.06 З 3 30 км 5/0
[Ci fib]
+16.6 +13.7 83 +16 +16 1020.7 992.5
21 16.06 З 1 20 км 5/0 2000 м
[Ac trans Ci fib]
+16.6 +12.4 76 +17 +17 1021.5 993.3
22 16.06 ЮВ 1 20 км 5/0
[Ac trans Ci fib]
+16.1 +12.7 80 +17 +17 1021.6 993.3
23 16.06 З 3 20 км 3/0
[Ac trans]
+14.2 +13.1 93 +13 +13 1021.9 993.4
00 17.06 В 1 20 км 3/0
[Ac trans]
+14.3 +12.7 90 +15 +15 1021.7 993.2
01 17.06 ЮВ 1 20 км 6/6 1350 м
[Sc]
+14.2 +12.3 88 +15 +15 1022.1 993.6
02 17.06 ЮЗ 2 20 км 5/5 1500 м
[Sc diur, vesp]
+13.4 +12.0 91 +13 +13 1022.5 993.9
03 17.06 СВ 1 20 км 4/4 1500 м
[Sc Ci fib]
+12.5 +11.6 94 +12 +12 1022.7 994.0
04 17.06 Ю 1 20 км 8/0
[Ac trans]
+13.8 +12.6 92 +14 +14 1022.6 994.1
05 17.06 СВ 2 20 км 8/0
[Ac trans Ci]
+16.0 +13.2 83 +16 +17 1022.8 994.5
06 17.06 С 1 20 км 8/0
[Ac trans Ci]
+18.1 +13.4 74 +19 +23 1022.5 994.4 +12.3
07 17.06 СВ 2 20 км 5/0
[Ac trans Ci fib]
+19.7 +12.7 64 +22 +28 комфорт 1022.2 994.2
08 17.06 СВ 2 20 км 6/1 1050 м
[Cu hum Ac trans Ci fib]
+21.0 +12.7 59 +24 +32 комфорт 1022.0 994.2
09 17.06 СВ 3 20 км 6/4 1110 м
[Cu hum Ci fib]
+22.4 +12.6 54 +25 +32 комфорт 1021.6 993.9
10 17.06 С 3 20 км 5/5 1300 м
[Cu hum]
+21.8 +12.9 57 +24 +31 комфорт 1021.5 993.8
11 17.06 В 3 20 км 5/5 1380 м
[Cu hum]
+23.2 +11.6 48 +26 +33 жарко 1021.1 993.5
12 17.06 С 2 20 км 5/4 1500 м
[Cu hum Ci fib]
+24.0 +12.3 48 +26 +36 жарко 1020.7 993.2
13 17.06 В 3 20 км 5/4 1500 м
[Cu hum Ci fib]
+23.8 +12.1 48 +26 +33 жарко 1020.4 992.9
14 17.06 В 2 20 км 5/3 1500 м
[Cu hum Ci fib]
+24.8 +12.4 46 +27 +34 жарко 1019.9 992.5
15 17.06 СВ 2 20 км 6/3 1500 м
[Cu hum Ci fib]
+25.0 +12.6 46 +27 +32 жарко 1019.2 991.8
17 17.06 СВ 2 20 км 8/1 1500 м
[Cu hum Cs]
+24.4 +12.4 47 +26 +28 жарко 1018.5 991.1
18 17.06 СВ 2 20 км 8/0
[Cs]
+23.4 +12.4 50 +26 +27 жарко 1018.6 991.1 +25.5

 

Местоположение метеостанции Часлав (Чехия): широта 49.93 долгота 15.38 высота над уровнем моря 239 м.

В архиве по умолчанию представлена погода в Чаславе за последнюю неделю. Архивные данные за месяц целиком и за предыдущие месяцы, начиная с января 2011 года, Вы можете получить, выбрав интересующий диапазон дат из раскрывающегося списка и нажав кнопку "Ввод!".


*Определитесь, кто Вы:
робот инопланетянин человек

Внимание! Время в таблицах - всемирное. Для получения местного времени необходимо прибавить поправку, которая равна 1 ч.

Смотрите также архив погоды в соседних городах и на ближайших метеорологических станциях:

Погода в Пардубице (Чехия) (27 км)
Погода в Кресин-Крамолине (Чехия) (44 км)
Погода в Пршибиславе (Чехия) (48 км)
Погода в Свраточе (Чехия) (52 км)
Погода в Прага аэропорту (Чехия) (64 км)
Погода в Праге-Либус (Чехия) (67 км)
Погода в Усти-над-Орлици (Чехия) (75 км)
Погода в Поломе (Чехия) (82 км)
Погода в Праге (Чехия) (83 км)
Погода в Церкви Мыслова (Чехия) (84 км)

Пояснения к столбцам:

Ветер - указаны скорость ветра в м/с - средняя за 10 мин, порывы в срок и между сроками (в фигурных скобках) и направление, откуда дует ветер: С - северный, СВ - северо-восточный, В - восточный, ЮВ - юго-восточный, Ю - южный, ЮЗ - юго-западный, З - западный, СЗ - северо-западный.
Видимость - горизонтальная дальность видимости в метрах или километрах. При видимости от 1 до 10 км при отсутствии осадков обычно наблюдается дымка, при ухудшении видимости до 1 км и менее - туман. В сухую погоду видимость может ухудшаться дымом, пылью или мглою.
Явления - указаны атмосферные явления, наблюдавшиеся в срок или в последний час перед сроком; фигурными скобками обозначены явления, наблюдавшиеся между сроками (за 1-3 часа до срока); квадратными скобками обозначены град или гололедные отложения с указанием их диаметра в мм.
Облачность - указаны через наклонную черту общая и нижняя облачность в баллах и высота нижней границы облаков в метрах; квадратными скобками обозначены формы облаков: Ci - перистые, Cs - перисто-слоистые, Cc - перисто-кучевые, Ac - высококучевые, As - высокослоистые, Sc - слоисто-кучевые, Ns - слоисто-дождевые, Cu - кучевые, Cb - кучево-дождевые. Подробнее классификацию облаков см. в Атласе облаков (PDF).
T - Температура воздуха - температура, измеренная на высоте 2 м над землей.
Td - Температура точки росы - температура, при понижении до которой содержащийся в воздухе водяной пар достигнет насыщения.
f - Относительная влажность воздуха - влажноcть воздуха, измеренная на высоте 2 м над землей.
Te - Эффективная температура - температура, которую ощущает одетый по сезону человек в тени. Характеристика душности погоды. При расчете учитывается влияние влажности воздуха и скорости ветра на теплоощущения человека.
Tes - Эффективная температура на солнце - температура, которую ощущает человек, с поправкой на солнечный нагрев. Характеристика знойности погоды. Зависит от высоты солнца над горизонтом, облачности и скорости ветра. Ночью, в пасмурную погоду, а также при ветре 12 м/с и более поправка равна нулю.
P - Атмосферное давление - приведенное к уровню моря атмосферное давление.
Po - Атмосферное давление - измеренное на уровне метеостанции атмосферное давление.
Tmin - Минимальная температура - минимум температуры воздуха на высоте 2 м над землей.
Tmax - Максимальная температура - максимум температуры воздуха на высоте 2 м над землей.
R - Количество осадков - Количество выпавших осадков за период времени, мм. При наведении курсора мыши на число - период времени, за который выпало указанное количество осадков.
R24 - Количество осадков - Количество выпавших осадков за 24 часа, мм.
S - Снежный покров - Высота снежного покрова, см. При наведении курсора мыши на число - состояние снежного покрова и степень покрытия местности в баллах.